| time (UTC) | temp F | wind direction | speed MPH | gust MPH | rain 1hr in | rain 24hr in | rain mn in | humidity % | barometer mb |
| 20260507112812 | 61 | 0.0 | 0.0 | 0.00 | 0.00 | 0.00 | 58 | 1006.3 | |
| 20260507111721 | 64 | 0.0 | 0.0 | 0.00 | 0.00 | 0.00 | 57 | 1006.3 | |
| 20260507110630 | 66 | 0.0 | 0.0 | 0.00 | 0.00 | 0.00 | 57 | 1006.4 | |
| 20260507105538 | 67 | 0.0 | 0.0 | 0.00 | 0.00 | 0.00 | 57 | 1006.5 | |
| 20260507104446 | 69 | 0.0 | 0.0 | 0.00 | 0.00 | 0.00 | 57 | 1006.4 | |
| 20260507102306 | 69 | 0.0 | 0.0 | 0.00 | 0.00 | 0.00 | 58 | 1006.5 | |
| 20260507101209 | 66 | 0.0 | 0.0 | 0.00 | 0.00 | 0.00 | 60 | 1006.7 | |
| 20260507100116 | 63 | 0.0 | 0.0 | 0.00 | 0.00 | 0.00 | 61 | 1006.8 | |
| 20260507095023 | 61 | 0.0 | 0.0 | 0.00 | 0.00 | 0.00 | 63 | 1006.9 | |
| 20260507093930 | 59 | 0.0 | 0.0 | 0.00 | 0.00 | 0.00 | 65 | 1006.9 | |
| 20260507092837 | 59 | 0.0 | 0.0 | 0.00 | 0.00 | 0.00 | 65 | 1007.0 | |
| 20260507091745 | 59 | 0.0 | 0.0 | 0.00 | 0.00 | 0.00 | 65 | 1006.9 | |
| 20260507090653 | 59 | 0.0 | 0.0 | 0.00 | 0.00 | 0.00 | 65 | 1007.0 | |
| 20260507085601 | 59 | 0.0 | 0.0 | 0.00 | 0.00 | 0.00 | 65 | 1007.0 | |
| 20260507084509 | 59 | 0.0 | 0.0 | 0.00 | 0.00 | 0.00 | 65 | 1007.1 | |
| 20260507083416 | 57 | 0.0 | 0.0 | 0.00 | 0.00 | 0.00 | 67 | 1007.0 | |
| 20260507082324 | 57 | 0.0 | 0.0 | 0.00 | 0.00 | 0.00 | 67 | 1007.0 | |
| 20260507081232 | 56 | 0.0 | 0.0 | 0.00 | 0.00 | 0.00 | 67 | 1007.0 | |
| 20260507080139 | 55 | 0.0 | 0.0 | 0.00 | 0.00 | 0.00 | 68 | 1007.1 | |
| 20260507075047 | 54 | 0.0 | 0.0 | 0.00 | 0.00 | 0.00 | 69 | 1007.1 | |
| 20260507073954 | 53 | 0.0 | 0.0 | 0.00 | 0.00 | 0.00 | 69 | 1007.0 | |
| 20260507072902 | 53 | 0.0 | 0.0 | 0.00 | 0.00 | 0.00 | 70 | 1006.9 | |
| 20260507071810 | 53 | 0.0 | 0.0 | 0.00 | 0.00 | 0.00 | 70 | 1007.0 | |
| 20260507070717 | 52 | 0.0 | 0.0 | 0.00 | 0.00 | 0.00 | 71 | 1006.9 | |
| 20260507065625 | 51 | 0.0 | 0.0 | 0.00 | 0.00 | 0.00 | 71 | 1006.8 | |
| 20260507064533 | 51 | 0.0 | 0.0 | 0.00 | 0.00 | 0.00 | 71 | 1006.8 | |
| 20260507063440 | 50 | 0.0 | 0.0 | 0.00 | 0.00 | 0.00 | 71 | 1006.7 | |
| 20260507062348 | 50 | 0.0 | 0.0 | 0.00 | 0.00 | 0.00 | 72 | 1006.7 | |
| 20260507061256 | 49 | 0.0 | 0.0 | 0.00 | 0.00 | 0.00 | 72 | 1006.6 | |
| 20260507060203 | 48 | 0.0 | 0.0 | 0.00 | 0.00 | 0.00 | 72 | 1006.7 | |
| 20260507055110 | 47 | 0.0 | 0.0 | 0.00 | 0.00 | 0.00 | 73 | 1006.8 | |
| 20260507054018 | 47 | 0.0 | 0.0 | 0.00 | 0.00 | 0.00 | 73 | 1006.7 | |
| 20260507052925 | 47 | 0.0 | 0.0 | 0.00 | 0.00 | 0.00 | 73 | 1006.7 | |
| 20260507051833 | 47 | 0.0 | 0.0 | 0.00 | 0.00 | 0.00 | 73 | 1006.7 | |
| 20260507050741 | 46 | 0.0 | 0.0 | 0.00 | 0.00 | 0.00 | 73 | 1006.5 | |
| 20260507045649 | 46 | 0.0 | 0.0 | 0.00 | 0.00 | 0.00 | 73 | 1006.4 | |
| 20260507044557 | 46 | 0.0 | 0.0 | 0.00 | 0.00 | 0.00 | 73 | 1006.2 | |
| 20260507043504 | 46 | 0.0 | 0.0 | 0.00 | 0.00 | 0.00 | 73 | 1006.1 | |
| 20260507042412 | 46 | 0.0 | 0.0 | 0.00 | 0.00 | 0.00 | 73 | 1006.0 | |
| 20260507041320 | 46 | 0.0 | 0.0 | 0.00 | 0.00 | 0.00 | 73 | 1005.9 | |
| 20260507040228 | 46 | 0.0 | 0.0 | 0.00 | 0.00 | 0.00 | 73 | 1005.8 | |
| 20260507035136 | 46 | 0.0 | 0.0 | 0.00 | 0.00 | 0.00 | 73 | 1005.7 | |
| 20260507034044 | 46 | 0.0 | 0.0 | 0.00 | 0.00 | 0.00 | 73 | 1005.6 | |
| 20260507031859 | 46 | 0.0 | 0.0 | 0.00 | 0.00 | 0.00 | 73 | 1005.6 | |
| 20260507030807 | 46 | 0.0 | 0.0 | 0.00 | 0.00 | 0.00 | 73 | 1005.7 | |
| 20260507025715 | 46 | 0.0 | 0.0 | 0.00 | 0.00 | 0.00 | 74 | 1005.8 | |
| 20260507024623 | 45 | 0.0 | 0.0 | 0.00 | 0.00 | 0.00 | 73 | 1005.7 | |
| 20260507023531 | 46 | 0.0 | 0.0 | 0.00 | 0.00 | 0.00 | 73 | 1005.7 | |
| 20260507022439 | 46 | 0.0 | 0.0 | 0.00 | 0.00 | 0.00 | 73 | 1005.7 | |
| 20260507021347 | 46 | 0.0 | 0.0 | 0.00 | 0.00 | 0.00 | 73 | 1005.8 | |
| 20260507020254 | 46 | 0.0 | 0.0 | 0.00 | 0.00 | 0.00 | 73 | 1005.8 | |
| 20260507015202 | 46 | 0.0 | 0.0 | 0.00 | 0.00 | 0.00 | 73 | 1005.6 | |
| 20260507014110 | 46 | 0.0 | 0.0 | 0.00 | 0.00 | 0.00 | 73 | 1005.6 | |
| 20260507013018 | 46 | 0.0 | 0.0 | 0.00 | 0.00 | 0.00 | 73 | 1005.6 | |
| 20260507011926 | 46 | 0.0 | 0.0 | 0.00 | 0.00 | 0.00 | 73 | 1005.7 | |
| 20260507010834 | 46 | 0.0 | 0.0 | 0.00 | 0.00 | 0.00 | 73 | 1005.7 | |
| 20260507005741 | 46 | 0.0 | 0.0 | 0.00 | 0.00 | 0.00 | 73 | 1005.8 | |
| 20260507004649 | 46 | 0.0 | 0.0 | 0.00 | 0.00 | 0.00 | 73 | 1005.7 | |
| 20260507003557 | 46 | 0.0 | 0.0 | 0.00 | 0.00 | 0.00 | 73 | 1005.8 | |
| 20260507001412 | 46 | 0.0 | 0.0 | 0.00 | 0.00 | 0.00 | 73 | 1005.7 | |
| 20260507000321 | 46 | 0.0 | 0.0 | 0.00 | 0.00 | 0.00 | 73 | 1005.6 | |
| 20260506235228 | 46 | 0.0 | 0.0 | 0.00 | 0.00 | 0.00 | 73 | 1005.6 | |
| 20260506234135 | 46 | 0.0 | 0.0 | 0.00 | 0.00 | 0.00 | 73 | 1005.6 | |
| 20260506233043 | 45 | 0.0 | 0.0 | 0.00 | 0.00 | 0.00 | 74 | 1005.6 | |
| 20260506231951 | 45 | 0.0 | 0.0 | 0.00 | 0.00 | 0.00 | 74 | 1005.7 | |
| 20260506230859 | 45 | 0.0 | 0.0 | 0.00 | 0.00 | 0.00 | 74 | 1005.7 | |
| 20260506225807 | 45 | 0.0 | 0.0 | 0.00 | 0.00 | 0.00 | 74 | 1005.6 | |
| 20260506224714 | 44 | 0.0 | 0.0 | 0.00 | 0.00 | 0.00 | 74 | 1005.7 | |
| 20260506223622 | 44 | 0.0 | 0.0 | 0.00 | 0.00 | 0.00 | 74 | 1005.7 | |
| 20260506222530 | 45 | 0.0 | 0.0 | 0.00 | 0.00 | 0.00 | 74 | 1005.9 | |
| 20260506221438 | 45 | 0.0 | 0.0 | 0.00 | 0.00 | 0.00 | 74 | 1005.7 | |
| 20260506215254 | 47 | 0.0 | 0.0 | 0.00 | 0.00 | 0.00 | 73 | 1005.6 | |
| 20260506214203 | 48 | 0.0 | 0.0 | 0.00 | 0.00 | 0.00 | 72 | 1005.5 | |
| 20260506213110 | 48 | 0.0 | 0.0 | 0.00 | 0.00 | 0.00 | 72 | 1005.7 | |
| 20260506212019 | 48 | 0.0 | 0.0 | 0.00 | 0.00 | 0.00 | 72 | 1005.6 | |
| 20260506205834 | 48 | 0.0 | 0.0 | 0.00 | 0.00 | 0.00 | 72 | 1005.6 | |
| 20260506204742 | 48 | 0.0 | 0.0 | 0.00 | 0.00 | 0.00 | 72 | 1005.5 | |
| 20260506201505 | 49 | 0.0 | 0.0 | 0.00 | 0.00 | 0.00 | 73 | 1005.3 | |
| 20260506200412 | 49 | 0.0 | 0.0 | 0.00 | 0.00 | 0.00 | 73 | 1005.2 | |
| 20260506195321 | 49 | 0.0 | 0.0 | 0.00 | 0.00 | 0.00 | 73 | 1004.8 | |
| 20260506194228 | 49 | 0.0 | 0.0 | 0.00 | 0.00 | 0.00 | 73 | 1004.7 | |
| 20260506193136 | 49 | 0.0 | 0.0 | 0.00 | 0.00 | 0.00 | 73 | 1004.4 | |
| 20260506192044 | 49 | 0.0 | 0.0 | 0.00 | 0.00 | 0.00 | 73 | 1004.2 | |
| 20260506190952 | 49 | 0.0 | 0.0 | 0.00 | 0.00 | 0.00 | 73 | 1004.1 | |
| 20260506185900 | 49 | 0.0 | 0.0 | 0.00 | 0.00 | 0.00 | 73 | 1004.0 | |
| 20260506184808 | 49 | 0.0 | 0.0 | 0.00 | 0.00 | 0.00 | 73 | 1003.8 | |
| 20260506183715 | 50 | 0.0 | 0.0 | 0.00 | 0.00 | 0.00 | 73 | 1003.8 | |
| 20260506182623 | 50 | 0.0 | 0.0 | 0.00 | 0.00 | 0.00 | 73 | 1003.7 | |
| 20260506181531 | 50 | 0.0 | 0.0 | 0.00 | 0.00 | 0.00 | 72 | 1003.7 | |
| 20260506180439 | 51 | 0.0 | 0.0 | 0.00 | 0.00 | 0.00 | 72 | 1003.4 | |
| 20260506175347 | 52 | 0.0 | 0.0 | 0.00 | 0.00 | 0.00 | 72 | 1003.5 | |
| 20260506174255 | 52 | 0.0 | 0.0 | 0.00 | 0.00 | 0.00 | 72 | 1003.4 | |
| 20260506173204 | 53 | 0.0 | 0.0 | 0.00 | 0.00 | 0.00 | 71 | 1003.2 | |
| 20260506172112 | 54 | 0.0 | 0.0 | 0.00 | 0.00 | 0.00 | 71 | 1003.0 | |
| 20260506171020 | 54 | 0.0 | 0.0 | 0.00 | 0.00 | 0.00 | 70 | 1003.1 | |
| 20260506165928 | 55 | 0.0 | 0.0 | 0.00 | 0.00 | 0.00 | 71 | 1002.8 | |
| 20260506163744 | 55 | 0.0 | 0.0 | 0.00 | 0.00 | 0.00 | 71 | 1003.0 | |
| 20260506162652 | 55 | 0.0 | 0.0 | 0.00 | 0.00 | 0.00 | 71 | 1002.9 | |
| 20260506161600 | 56 | 0.0 | 0.0 | 0.00 | 0.00 | 0.00 | 71 | 1002.8 | |
| 20260506160508 | 56 | 0.0 | 0.0 | 0.00 | 0.00 | 0.00 | 71 | 1002.6 | |
| 20260506155416 | 57 | 0.0 | 0.0 | 0.00 | 0.00 | 0.00 | 71 | 1002.7 | |
| 20260506154325 | 60 | 0.0 | 0.0 | 0.00 | 0.00 | 0.00 | 68 | 1002.8 | |
| 20260506153234 | 62 | 0.0 | 0.0 | 0.00 | 0.00 | 0.00 | 67 | 1002.8 | |
| 20260506152140 | 60 | 0.0 | 0.0 | 0.00 | 0.00 | 0.00 | 70 | 1002.8 | |
| 20260506151049 | 62 | 0.0 | 0.0 | 0.00 | 0.00 | 0.00 | 66 | 1002.9 | |
| 20260506145956 | 60 | 0.0 | 0.0 | 0.00 | 0.00 | 0.00 | 71 | 1002.9 | |
| 20260506144901 | 54 | 0.0 | 0.0 | 0.00 | 0.00 | 0.00 | 75 | 1003.1 | |
| 20260506143808 | 51 | 0.0 | 0.0 | 0.00 | 0.00 | 0.00 | 75 | 1003.1 | |
| 20260506142716 | 52 | 0.0 | 0.0 | 0.00 | 0.00 | 0.00 | 74 | 1003.2 | |
| 20260506141624 | 52 | 0.0 | 0.0 | 0.00 | 0.00 | 0.00 | 74 | 1003.1 | |
| 20260506135440 | 53 | 0.0 | 0.0 | 0.00 | 0.00 | 0.00 | 73 | 1003.4 | |
| 20260506134348 | 53 | 0.0 | 0.0 | 0.00 | 0.00 | 0.00 | 73 | 1003.4 | |
| 20260506133255 | 52 | 0.0 | 0.0 | 0.00 | 0.00 | 0.00 | 74 | 1003.6 | |
| 20260506132203 | 52 | 0.0 | 0.0 | 0.00 | 0.00 | 0.00 | 73 | 1003.5 | |
| 20260506131111 | 52 | 0.0 | 0.0 | 0.00 | 0.00 | 0.00 | 73 | 1003.1 | |
| 20260506130019 | 51 | 0.0 | 0.0 | 0.00 | 0.00 | 0.00 | 74 | 1003.5 | |
| 20260506124926 | 51 | 0.0 | 0.0 | 0.00 | 0.00 | 0.00 | 73 | 1003.8 | |
| 20260506123834 | 52 | 0.0 | 0.0 | 0.00 | 0.00 | 0.00 | 72 | 1003.6 | |
| 20260506122742 | 53 | 0.0 | 0.0 | 0.00 | 0.00 | 0.00 | 72 | 1003.6 | |
| 20260506115506 | 55 | 0.0 | 0.0 | 0.00 | 0.00 | 0.00 | 69 | 1003.2 | |
| 20260506114414 | 54 | 0.0 | 0.0 | 0.00 | 0.00 | 0.00 | 71 | 1003.2 |